Regional Weather Roundup
Issued by NWS

Home | Current Version | Previous Version | Graphics & Text | Print | Product List | Glossary Off
Versions: 1 2 3 4 5 6 7 8 9 10 11 12 13 14 15 16 17 18 19 20 21 22 23 24 25 26 27 28 29 30 31 32 33 34 35 36 37 38 39 40 41 42 43 44 45 46 47 48 49 50

408
ASUS43 KDMX 250101
RWRIA

WEATHER ROUNDUP FOR IOWA
NATIONAL WEATHER SERVICE DES MOINES IA
800 PM CDT FRI MAR 24 2017

NOTE: "FAIR" INDICATES FEW OR NO CLOUDS BELOW 12,000 FEET WITH NO
SIGNIFICANT WEATHER AND/OR OBSTRUCTIONS TO VISIBILITY.

* - THESE STATIONS ARE NOT NWS STATIONS...THUS NOT UNDER NWS
QUALITY CONTROL.  THEY ALSO DO NOT REPORT WEATHER SUCH
AS PRECIPITATION OR FOG.

IAZ001>003-012>014-020>022-031>034-043>046-250200-
   NORTHWEST IOWA

CITY           SKY/WX    TMP DP  RH WIND       PRES   REMARKS
CARROLL *      RAIN      41  41 100 NE16      30.02R
CHEROKEE *     DRIZZLE   42  40  94 NE13G20   30.08R
LE MARS *      CLOUDY    43  39  87 N8G15     30.11R
ORANGE CITY *  CLOUDY    39  37  93 N15       30.10R WCI  31
SHELDON *      CLOUDY    39  39 100 NE20      30.09R WCI  30
SIOUX CITY     RAIN      42  41  96 NE14      30.08R FOG
SPENCER        CLOUDY    41  38  89 NE21      30.08R
STORM LAKE *   LGT RAIN  39  39 100 NE16G26   30.05R WCI  30
$$

IAZ055>058-069>071-079>083-090>094-250200-
   SOUTHWEST IOWA

CITY           SKY/WX    TMP DP  RH WIND       PRES   REMARKS
ATLANTIC *     LGT RAIN  43  43 100 N18       29.96F
AUDUBON *      LGT RAIN  41  39  93 N15       30.00S
CLARINDA *     CLOUDY    48  46  93 N15G21    29.93S
COUNCIL BLFS * RAIN      41  41 100 NE20      29.96F
CRESTON *      CLOUDY    46  46 100 NE16G24   29.94R FOG
HARLAN  *      MIX PCPN  41  41 100 NE21      30.01F
LAMONI         LGT RAIN  54  54 100 NE8       29.89F FOG
RED OAK *      CLOUDY    45  43  93 NE15G23   29.94S
SHENANDOAH *   CLOUDY    45  43  93 N18       29.93S
$$

IAZ047>049-059>061-072>074-084-250200-
   CENTRAL IOWA

CITY           SKY/WX    TMP DP  RH WIND       PRES   REMARKS
AMES           LGT RAIN  43  43 100 N13       30.00S
ANKENY *       CLOUDY    45  43  93 N15G21    29.99S FOG
BOONE *        LGT RAIN  41  41 100 N16G23    30.00S
CHARITON *     CLOUDY    50  50 100 N10       29.94S FOG
DES MOINES     CLOUDY    47  44  90 NE14      29.99R FOG
GRINNELL*      CLOUDY    46  44  93 N10G16    29.99S FOG
MARSHALLTOWN   LGT RAIN  43  42  97 N13       30.00R FOG
NEWTON *       CLOUDY    45  43  93 NE16G24   29.97R FOG
PELLA *        LGT RAIN  47  47  98 N10       29.98R
PERRY *        LGT RAIN  43  42  95 N13G20    30.00S
$$

IAZ004>006-015-016-023>025-035-036-250200-
   NORTH CENTRAL IOWA

CITY           SKY/WX    TMP DP  RH WIND       PRES   REMARKS
ALGONA *       CLOUDY    41  41 100 NE14      30.07R
CLARION *      CLOUDY    41  41 100 NE15      30.06R FOG
ESTHERVILLE    CLOUDY    40  39  97 N15       30.09R WCI  32
FORT DODGE *   CLOUDY    39  36  87 N10G16    30.06R WCI  32
MASON CITY     CLOUDY    40  37  89 NE14      30.08R WCI  32
FOREST CITY *  CLOUDY    39  37  93 NE15G24   30.07R WCI  31
WEBSTER CITY * MIX PCPN  41  41 100 N15       30.02R
IOWA FALLS *   LGT RAIN  42  40  93 N13G18    30.04R
$$

IAZ007>011-017>019-026>030-037>042-050>054-066-250200-
   NORTHEAST IOWA

CITY           SKY/WX    TMP DP  RH WIND       PRES   REMARKS
CEDAR RAPIDS   CLOUDY    50  50 100 NW7       29.97R FOG
CHARLES CITY * LGT RAIN  41  41 100 NE14G20   30.05R
CLINTON *      LGT RAIN  55  54  96 SW3       30.02R FOG
DECORAH *      LGT RAIN  39  39 100 NE10      30.05R WCI  32
DUBUQUE        CLOUDY    47  44  90 NE16      30.00R FOG
MONTICELLO *   CLOUDY    48  46  93 NE5       30.00R FOG
OELWEIN *      LGT RAIN  43  43 100 N15G23    30.02R
WATERLOO       LGT RAIN  42  40  92 N12       30.02R FOG
$$

IAZ064-065-067-068-078-250200-
   EAST CENTRAL IOWA

CITY           SKY/WX    TMP DP  RH WIND       PRES   REMARKS
DAVENPORT      RAIN      55  54  96 CALM      30.01S FOG
IOWA CITY      LGT RAIN  55  53  93 E3        29.98F FOG
MUSCATINE *    LGT RAIN  55  54  94 NE6       29.98F
QUAD CITIES    LGT RAIN  57  53  86 NW5       29.99R
$$

IAZ062-063-075>077-085>089-095>099-250200-
   SOUTHEAST IOWA

CITY           SKY/WX    TMP DP  RH WIND       PRES   REMARKS
BURLINGTON     CLOUDY    57  56  96 E3        29.95F
FAIRFIELD *    CLOUDY    55  54  94 N3        29.95S FOG
FORT MADISON * LGT RAIN  55  52  88 CALM      29.97R
KEOKUK *       LGT RAIN  57  55  94 MISG      29.96R
OSKALOOSA *    LGT RAIN  53  52  98 NE7       29.95F
CENTERVILLE *  LGT RAIN  54  54 100 CALM      29.95S
OTTUMWA        LGT RAIN  56  56 100 E5        29.94S FOG
WASHINGTON *   LGT RAIN  54  54 100 NE3       29.97F
$$

ABBREVIATIONS USED IN REMARKS
   TC - TEMPERATURES IN CELSIUS
  WCI - WIND CHILL INDEX
   HX - HEAT INDEX
  VSB - VISIBILITY
$$





USA.gov is the U.S. government's official web portal to all federal, state and local government web resources and services.